Weather History for KGTB - March, 2012

Change the Weather History Date:

Friday, March 30, 2012

  Actual Average (KART) Record (KART)
Temperature  
Mean Temperature 32 °F 37 °F  
Max Temperature 41 °F 47 °F 84 °F (1977)
Min Temperature 23 °F 27 °F 7 °F (1965)
Degree Days  
Heating Degree Days 34 28  
Month to date heating degree days 1039  
Since 1 July heating degree days 6480  
Cooling Degree Days 0 0  
Month to date cooling degree days 0  
Year to date cooling degree days 0  
Moisture  
Dew Point 20 °F    
Average Humidity 65    
Maximum Humidity 93    
Minimum Humidity 29    
Precipitation  
Precipitation 0.00 in 0.08 in 0.47 in (1989)
Month to date precipitation 2.22  
Year to date precipitation 7.10  
Sea Level Pressure  
Sea Level Pressure 30.06 in    
Wind  
Wind Speed 8 mph (NW)    
Max Wind Speed 16 mph    
Max Gust Speed -    
Visibility 10 miles    
Events      
T = Trace of Precipitation, MM = Missing Value Source: NWS Daily Summary

Daily Weather History Graph

Daily Weather History Graph

Search for Another Location

Airport or City:

Trip Planner

Search our weather history database for the weather conditions in past years. The results will help you decide how hot, cold, wet, or windy it might be!

Date:

Astronomy

Mar. 30, 2012 Rise Set
Actual Time 6:46 AM EDT 7:28 PM EDT
Civil Twilight 6:17 AM EDT 7:57 PM EDT
Nautical Twilight 5:43 AM EDT 8:31 PM EDT
Astronomical Twilight 5:07 AM EDT 9:07 PM EDT
Moon 11:40 AM EDT (3/30) 2:12 AM EDT (3/30)
Length of Visible Light 13h 39m
Length of Day
12h 41m
Waxing Crescent, 49% of the Moon is Illuminated
Mar 30
Waxing Crescent
Mar 30
First Quarter
Apr 6
Full
Apr 13
Last Quarter
Apr 21
New

Hourly Weather History & Observations

Time (EDT) Temp. Windchill Dew Point Humidity Pressure Visibility Wind Dir Wind Speed Gust Speed Precip Events Conditions
12:55 AM 30.2 °F 22.6 °F 18.9 °F 63% 30.10 in 10.0 mi NNW 8.1 mph - N/A   Scattered Clouds
1:55 AM 28.6 °F 21.5 °F 18.5 °F 66% 30.09 in 10.0 mi North 6.9 mph - N/A   Clear
2:55 AM 27.1 °F 23.2 °F 18.5 °F 70% 30.09 in 10.0 mi WNW 3.5 mph - N/A   Clear
3:55 AM 25.5 °F 19.9 °F 19.0 °F 76% 30.10 in 10.0 mi WNW 4.6 mph - N/A   Clear
4:55 AM 25.9 °F 20.3 °F 18.1 °F 73% 30.10 in 10.0 mi NW 4.6 mph - N/A   Clear
5:55 AM 25.2 °F 20.9 °F 18.5 °F 76% 30.11 in 10.0 mi WNW 3.5 mph - N/A   Clear
6:55 AM 23.9 °F 18.0 °F 18.5 °F 80% 30.15 in 10.0 mi NNW 4.6 mph - N/A   Clear
7:55 AM 26.6 °F 20.0 °F 17.8 °F 69% 30.15 in 10.0 mi North 5.8 mph - N/A   Clear
8:55 AM - - - N/A% - 10.0 mi North 12.7 mph - N/A   Clear
9:55 AM 30.7 °F 22.0 °F 13.8 °F 50% 30.17 in 10.0 mi North 10.4 mph - N/A   Clear
10:55 AM 33.4 °F 28.1 °F 11.1 °F 40% 30.16 in 10.0 mi Variable 5.8 mph - N/A   Clear
11:55 AM 35.1 °F 28.6 °F 10.6 °F 36% 30.15 in 10.0 mi North 8.1 mph - N/A   Scattered Clouds
12:55 PM 37.6 °F 31.6 °F 10.8 °F 33% 30.11 in 10.0 mi NE 8.1 mph - N/A   Partly Cloudy
1:55 PM 39.7 °F 33.2 °F 9.3 °F 29% 30.07 in 10.0 mi NNE 10.4 mph - N/A   Clear
2:55 PM 40.8 °F - 13.1 °F 32% 30.06 in 10.0 mi Calm Calm - N/A   Mostly Cloudy
5:55 PM 38.7 °F 32.9 °F 12.4 °F 34% 30.02 in 10.0 mi NE 8.1 mph - N/A   Mostly Cloudy
6:55 PM 37.9 °F 31.5 °F 12.7 °F 36% 30.01 in 10.0 mi NE 9.2 mph - N/A   Overcast
7:55 PM 37.6 °F 31.6 °F 12.9 °F 36% 30.02 in 10.0 mi SSW 8.1 mph - N/A   Mostly Cloudy
8:34 PM 33.8 °F 23.9 °F 28.4 °F 81% 30.03 in 10.0 mi SSW 15.0 mph - N/A   Overcast
8:37 PM 32.0 °F 22.5 °F 28.4 °F 87% 30.03 in 9.0 mi SSW 12.7 mph - N/A   Overcast
8:42 PM 32.0 °F 21.2 °F 28.4 °F 87% 29.99 in 8.0 mi SSW 16.1 mph - N/A   Overcast
8:52 PM 32.0 °F 22.5 °F 30.2 °F 93% 30.00 in 10.0 mi SSW 12.7 mph - N/A   Mostly Cloudy
8:53 PM 32.0 °F 23.0 °F 30.2 °F 93% 30.00 in 10.0 mi SSW 11.5 mph - N/A   Mostly Cloudy
8:55 PM 32.0 °F 22.5 °F 29.7 °F 91% 29.99 in 10.0 mi South 12.7 mph - 0.00 in   Mostly Cloudy
8:57 PM 32.0 °F 22.5 °F 30.2 °F 93% 30.00 in 10.0 mi South 12.7 mph - N/A   Mostly Cloudy
9:07 PM 32.0 °F 25.6 °F 28.4 °F 87% 29.99 in 10.0 mi South 6.9 mph - N/A   Scattered Clouds
9:55 PM 33.8 °F 28.6 °F 27.3 °F 77% 30.03 in 10.0 mi SSE 5.8 mph - N/A   Overcast
10:55 PM 34.3 °F 30.2 °F 27.3 °F 76% 30.04 in 10.0 mi ESE 4.6 mph - N/A   Overcast
11:55 PM 34.9 °F 27.1 °F 23.9 °F 64% 30.01 in 10.0 mi East 10.4 mph - N/A   Overcast